Change the Weather History Date:

Monday, October 14, 2013

  Actual Average Record
Temperature  
Mean Temperature 46 °F -  
Max Temperature 57 °F 63 °F 73 °F (1998)
Min Temperature 35 °F 29 °F 21 °F (2001)
Degree Days  
Heating Degree Days 19    
Moisture  
Dew Point 28 °F    
Average Humidity 51    
Maximum Humidity 87    
Minimum Humidity 23    
Precipitation  
Precipitation 0.07 in - - ()
Sea Level Pressure  
Sea Level Pressure 30.13 in    
Wind  
Wind Speed 11 mph (West)    
Max Wind Speed 23 mph    
Max Gust Speed 30 mph    
Visibility 10 miles    
Events Thunderstorm    
Averages and records for this station are not official NWS values.
T = Trace of Precipitation, MM = Missing Value Source: NWS Daily Summary

Daily Weather History Graph

Daily Weather History Graph

Search for Another Location

Airport or City:

Trip Planner

Search our weather history database for the weather conditions in past years. The results will help you decide how hot, cold, wet, or windy it might be!

Date:

Astronomy

Oct. 14, 2013 Rise Set
Actual Time 7:09 AM MDT 6:27 PM MDT
Civil Twilight 6:43 AM MDT 6:53 PM MDT
Nautical Twilight 6:13 AM MDT 7:23 PM MDT
Astronomical Twilight 5:43 AM MDT 7:53 PM MDT
Moon 3:52 PM MDT (10/14) 2:35 AM MDT (10/14)
Length of Visible Light 12h 10m
Length of Day
11h 18m
Waxing Gibbous, 80% of the Moon is Illuminated
Oct 14
Waxing Gibbous
Oct 18
Full
Oct 26
Last Quarter
Nov 3
New
Nov 9
First Quarter

Hourly Weather History & Observations

Time (MDT) Temp. Windchill Dew Point Humidity Pressure Visibility Wind Dir Wind Speed Gust Speed Precip Events Conditions
12:15 AM 48.2 °F - 44.6 °F 87% 30.13 in 10.0 mi SSW 8.1 mph - 0.01 in Thunderstorm Mostly Cloudy
12:35 AM 48.2 °F - 37.4 °F 66% 30.12 in 10.0 mi SSW 10.4 mph 23.0 mph 0.06 in Thunderstorm Thunderstorm
12:55 AM 46.4 °F 42.9 °F 39.2 °F 76% 30.12 in 10.0 mi SW 6.9 mph - 0.06 in   Mostly Cloudy
1:15 AM 48.2 °F - 44.6 °F 87% 30.12 in 10.0 mi SW 9.2 mph - N/A Thunderstorm Mostly Cloudy
1:35 AM 48.2 °F - 44.6 °F 87% 30.12 in 10.0 mi SW 6.9 mph - N/A Thunderstorm Mostly Cloudy
1:55 AM 48.2 °F - 44.6 °F 87% 30.12 in 10.0 mi SW 8.1 mph - N/A   Mostly Cloudy
2:15 AM 48.2 °F - 44.6 °F 87% 30.11 in 10.0 mi SW 5.8 mph - N/A   Mostly Cloudy
2:35 AM 48.2 °F - 44.6 °F 87% 30.11 in 10.0 mi SW 8.1 mph - N/A   Mostly Cloudy
2:55 AM 48.2 °F - 42.8 °F 82% 30.10 in 10.0 mi SW 6.9 mph - N/A   Mostly Cloudy
3:15 AM 48.2 °F - 44.6 °F 87% 30.10 in 10.0 mi WSW 6.9 mph - N/A   Mostly Cloudy
3:35 AM 48.2 °F - 44.6 °F 87% 30.09 in 10.0 mi SW 8.1 mph - N/A   Mostly Cloudy
3:55 AM 48.2 °F - 44.6 °F 87% 30.09 in 10.0 mi WSW 9.2 mph - N/A   Overcast
4:15 AM 48.2 °F - 44.6 °F 87% 30.09 in 10.0 mi WSW 11.5 mph - N/A   Overcast
4:35 AM 48.2 °F - 44.6 °F 87% 30.10 in 10.0 mi West 15.0 mph 19.6 mph N/A   Overcast
4:55 AM 48.2 °F - 42.8 °F 82% 30.10 in 10.0 mi NW 9.2 mph - 0.01 in   Mostly Cloudy
5:15 AM 46.4 °F 41.9 °F 39.2 °F 76% 30.11 in 10.0 mi WNW 9.2 mph - N/A   Mostly Cloudy
5:35 AM 46.4 °F 41.5 °F 35.6 °F 66% 30.12 in 10.0 mi West 10.4 mph - N/A   Mostly Cloudy
5:55 AM 44.6 °F 39.7 °F 33.8 °F 66% 30.12 in 10.0 mi West 9.2 mph - N/A   Mostly Cloudy
6:15 AM 44.6 °F 38.4 °F 30.2 °F 57% 30.12 in 10.0 mi West 12.7 mph 18.4 mph N/A   Overcast
6:35 AM 44.6 °F 38.1 °F 30.2 °F 57% 30.13 in 10.0 mi West 13.8 mph - N/A   Overcast
6:55 AM 44.6 °F 39.2 °F 30.2 °F 57% 30.13 in 10.0 mi West 10.4 mph - N/A   Overcast
7:15 AM 42.8 °F 38.0 °F 30.2 °F 61% 30.13 in 10.0 mi WSW 8.1 mph - N/A   Scattered Clouds
7:35 AM 42.8 °F 37.5 °F 30.2 °F 61% 30.13 in 10.0 mi WSW 9.2 mph - N/A   Clear
7:55 AM 42.8 °F 38.6 °F 30.2 °F 61% 30.13 in 10.0 mi WSW 6.9 mph - N/A   Clear
8:15 AM 44.6 °F 38.8 °F 30.2 °F 57% 30.12 in 10.0 mi WSW 11.5 mph 16.1 mph N/A   Clear
8:35 AM 46.4 °F 39.2 °F 28.4 °F 50% 30.12 in 10.0 mi West 18.4 mph 26.5 mph N/A   Clear
8:55 AM 48.2 °F - 28.4 °F 46% 30.12 in 10.0 mi West 18.4 mph - N/A   Clear
9:15 AM 48.2 °F - 26.6 °F 43% 30.13 in 10.0 mi West 20.7 mph 26.5 mph N/A   Clear
9:35 AM 50.0 °F - 26.6 °F 40% 30.13 in 10.0 mi WSW 19.6 mph 26.5 mph N/A   Partly Cloudy
9:55 AM 50.0 °F - 24.8 °F 37% 30.13 in 10.0 mi West 18.4 mph 28.8 mph N/A   Scattered Clouds
10:15 AM 50.0 °F - 24.8 °F 37% 30.14 in 10.0 mi West 13.8 mph 27.6 mph N/A   Mostly Cloudy
10:35 AM 50.0 °F - 24.8 °F 37% 30.13 in 10.0 mi West 20.7 mph 28.8 mph N/A   Scattered Clouds
10:55 AM 51.8 °F - 26.6 °F 38% 30.14 in 10.0 mi West 15.0 mph 24.2 mph N/A   Scattered Clouds
11:15 AM 51.8 °F - 24.8 °F 35% 30.14 in 10.0 mi West 13.8 mph - N/A   Mostly Cloudy
11:35 AM 51.8 °F - 24.8 °F 35% 30.14 in 10.0 mi West 16.1 mph 26.5 mph N/A   Mostly Cloudy
11:55 AM 51.8 °F - 24.8 °F 35% 30.13 in 10.0 mi West 13.8 mph 20.7 mph N/A   Mostly Cloudy
12:15 PM 51.8 °F - 24.8 °F 35% 30.12 in 10.0 mi WSW 18.4 mph 27.6 mph N/A   Partly Cloudy
12:35 PM 51.8 °F - 23.0 °F 33% 30.12 in 10.0 mi West 13.8 mph 24.2 mph N/A   Partly Cloudy
12:55 PM 53.6 °F - 24.8 °F 33% 30.11 in 10.0 mi WSW 12.7 mph 27.6 mph N/A   Scattered Clouds
1:15 PM 53.6 °F - 21.2 °F 28% 30.10 in 10.0 mi West 17.3 mph 28.8 mph N/A   Partly Cloudy
1:35 PM 55.4 °F - 21.2 °F 26% 30.09 in 10.0 mi WSW 18.4 mph 28.8 mph N/A   Clear
1:55 PM 55.4 °F - 19.4 °F 25% 30.08 in 10.0 mi WSW 12.7 mph 29.9 mph N/A   Clear
2:15 PM 55.4 °F - 19.4 °F 25% 30.08 in 10.0 mi West 16.1 mph 25.3 mph N/A   Clear
2:35 PM 55.4 °F - 19.4 °F 25% 30.07 in 10.0 mi West 23.0 mph 29.9 mph N/A   Clear
2:55 PM 57.2 °F - 19.4 °F 23% 30.07 in 10.0 mi WSW 17.3 mph 26.5 mph N/A   Clear
3:15 PM 55.4 °F - 19.4 °F 25% 30.08 in 10.0 mi West 19.6 mph 27.6 mph N/A   Clear
3:35 PM 55.4 °F - 19.4 °F 25% 30.08 in 10.0 mi WNW 18.4 mph 25.3 mph N/A   Clear
3:55 PM 55.4 °F - 17.6 °F 23% 30.09 in 10.0 mi WNW 17.3 mph 28.8 mph N/A   Clear
4:15 PM 55.4 °F - 19.4 °F 25% 30.09 in 10.0 mi West 18.4 mph - N/A   Clear
4:35 PM 55.4 °F - 17.6 °F 23% 30.09 in 10.0 mi West 19.6 mph 24.2 mph N/A   Clear
4:55 PM 55.4 °F - 19.4 °F 25% 30.09 in 10.0 mi West 19.6 mph - N/A   Clear
5:15 PM 55.4 °F - 17.6 °F 23% 30.10 in 10.0 mi West 20.7 mph - N/A   Clear
5:35 PM 53.6 °F - 17.6 °F 24% 30.10 in 10.0 mi WNW 17.3 mph 21.9 mph N/A   Clear
5:55 PM 53.6 °F - 17.6 °F 24% 30.11 in 10.0 mi West 12.7 mph - N/A   Clear
6:15 PM 51.8 °F - 17.6 °F 26% 30.12 in 10.0 mi West 13.8 mph - N/A   Clear
6:35 PM 48.2 °F - 17.6 °F 30% 30.13 in 10.0 mi WNW 11.5 mph - N/A   Clear
6:55 PM 46.4 °F 42.9 °F 19.4 °F 34% 30.14 in 10.0 mi WNW 6.9 mph - N/A   Clear
7:15 PM 44.6 °F 40.2 °F 19.4 °F 37% 30.15 in 10.0 mi NW 8.1 mph - N/A   Clear
7:35 PM 42.8 °F 38.0 °F 19.4 °F 39% 30.16 in 10.0 mi NW 8.1 mph - N/A   Clear
7:55 PM 42.8 °F 37.5 °F 19.4 °F 39% 30.16 in 10.0 mi West 9.2 mph - N/A   Clear
8:15 PM 41.0 °F 37.1 °F 19.4 °F 42% 30.18 in 10.0 mi North 5.8 mph - N/A   Clear
8:35 PM 39.2 °F 35.0 °F 21.2 °F 49% 30.18 in 10.0 mi NNW 5.8 mph - N/A   Clear
8:55 PM 39.2 °F 34.2 °F 21.2 °F 49% 30.18 in 10.0 mi North 6.9 mph - N/A   Clear
9:15 PM 39.2 °F 33.6 °F 21.2 °F 49% 30.19 in 10.0 mi North 8.1 mph - N/A   Clear
9:35 PM 37.4 °F 32.1 °F 21.2 °F 52% 30.19 in 10.0 mi North 6.9 mph - N/A   Clear
9:55 PM 35.6 °F 29.9 °F 21.2 °F 56% 30.20 in 10.0 mi SSE 6.9 mph - N/A   Clear
10:15 PM 35.6 °F 29.9 °F 23.0 °F 60% 30.20 in 10.0 mi East 6.9 mph - N/A   Clear
10:35 PM 37.4 °F 32.1 °F 23.0 °F 56% 30.19 in 10.0 mi East 6.9 mph - N/A   Clear
10:55 PM 35.6 °F 30.7 °F 23.0 °F 60% 30.19 in 10.0 mi East 5.8 mph - N/A   Clear
11:15 PM 35.6 °F 29.2 °F 24.8 °F 65% 30.19 in 10.0 mi East 8.1 mph - N/A   Clear
11:35 PM 35.6 °F 29.2 °F 24.8 °F 65% 30.19 in 10.0 mi ENE 8.1 mph - N/A   Clear
11:55 PM 35.6 °F 31.7 °F 24.8 °F 65% 30.19 in 10.0 mi ENE 4.6 mph - N/A   Clear